Location: Presov
(49.0000°N, 21.2500°E)
Time: 05:22:16
(UTC+02:00)

Transit 2A Rocket - Pass Details

Date: 22 April 2021
Orbit: 594 x 909 km, 66.7° (Epoch: 07 May)

Event Time Altitude Azimuth Distance (km) Brightness Sun altitude
Rises 16:29:19 0° 239° (WSW) 2,911 9.1 29.5°
Reaches altitude 10° 16:31:47 10° 248° (WSW) 1,975 8.8 29.1°
Maximum altitude 16:35:51 36° 315° (NW) 964 6.3 28.5°
Drops below altitude 10° 16:39:51 10° 23° (NNE) 1,938 6.9 27.8°
Sets 16:42:14 0° 32° (NNE) 2,847 7.6 27.5°
